星链-5305 (STARLINK-5305 )

导读

STARLINK-5305是美国SpaceX公司星链(Starlink)星座的一颗互联网通信卫星,于2023年1月19日发射升空,属于星链低轨互联网星座组网卫星。作为量产型低轨通信卫星,它采用霍尔推进器与自主避撞设计,配备通信载荷与星间链路,旨在为全球提供高速低延迟互联网接入服务,目前正常在轨运行,助力星链星座全球覆盖。

Basic Information
目录编号:
55314
目录名称:
STARLINK-5305
国际标识:
2023-010AX
轨道中心:
EARTH
卫星名称:
星链-5305
卫星全名:
星链-5305 (STARLINK-5305 )
卫星状态:
在轨 (已飞行1243 天)
发射日期:
2023-01-19 UTC
国别 :
美国 (US)
星等 :
--
Orbit Information
数据来源 国际轨道数据 AOE轨道数据
星历时间 2026-06-15T05:51:54+0800
7小时前
查看轨道信息
2026-06-15T05:00:00+0800
8小时前
查看轨道信息
半长轴 6950.245km 6950.228km
偏心率 0.0003277 0.0003364
轨道倾角 69.999° 70.001°
近地点辐角 271.870° 267.862°
升交点赤经 119.382° 119.473°
平近点角 88.209° 257.849°
近地点 569.83km 569.752km
远地点 574.386km 574.43km
周期 96.108分钟 96.108分钟
每日圈数 14.983134 14.983189
Detailed Information
固有亮度:
5
最大亮度:
2.5
卫星平台:
Starlink v1.5
覆盖范围:
全球
运营商:
太空探索技术公司
运营商所在国:
美国
制造商(研发单位):
太空探索技术公司
制造商所在国:
美国
使用方式:
暂无
Satellite Introduction
星链(Starlink)计划是由太空探索技术公司(SpaceX)提出的一个巨型低轨卫星互联网星座项目,计划在2019年至2024年间在太空搭建由约1.2万颗卫星组成的“星链”网络,其中1584颗将部署在地球上空550千米处的近地轨道,并从2020年开始工作。该卫星仍在工作。
2D Orbit Map
3D Orbit Map
Orbit Altitude Analysis Chart
Orbit Inclination Analysis Chart
Orbit Comprehensive Analysis Chart
View Comprehensive Chart